Location: Buenos Aires
(34.6076°S, 58.4371°W)
Time: 13:30:33
(UTC-03:00)

Envisat - Pass Details

Date: 01 July 2021
Orbit: 764 x 766 km, 98.2° (Epoch: 03 August)

Event Time Altitude Azimuth Distance (km) Brightness Sun altitude
Rises 18:30:21 0° 173° (S) 3,266 6.0 -7.6°
Reaches altitude 10° 18:32:42 10° 176° (S) 2,333 5.2 -8.0°
Maximum altitude 18:37:45 60° 254° (WSW) 880 3.6 -9.0°
Drops below altitude 10° 18:42:45 10° 333° (NNW) 2,304 6.2 -9.9°
Sets 18:45:04 0° 337° (NNW) 3,223 7.0 -10.4°
